Wind_Speed
13 14 15 14 14 14 14 13 13 14 17 20 21 21 20 20 19 17 16 14 13 13
7 7 7 8 9 11 12 14 15 15 15 16 20 21 19 17 17 15 14 11 9 9
7 8 9 10 10 11 11 11 12 12 11 12 16 17 19 19 18 16 13 11 8 9
6 5 5 6 6 6 6 7 7 7 5 7 9 10 15 15 14 12 10 8 7 7
4 3 2 3 4 5 5 5 5 5 5 6 7 8 8 9 8 8 8 7 6 6
4 4 3 2 2 3 4 4 3 3 4 4 5 6 7 7 8 9 8 7 8 7
4 3 3 4 3 4 3 3 2 2 2 3 5 6 8 9 10 10 10 9 8 7
4 3 4 4 5 5 5 4 5 5 5 5 5 7 8 10 12 13 13 12 11 11
5 4 4 4 5 5 6 6 7 8 7 7 7 8 11 13 16 16 17 18 16 15
7 6 6 7 7 8 8 9 9 10 11 13 13 11 12 15 16 17 17 17 15 13
9 8 8 8 8 9 10 11 13 14 14 15 14 12 13 15 17 18 16 14 12 11
11 11 10 10 11 11 12 13 14 15 16 16 14 13 14 16 17 17 15 12 10 9
11 12 13 12 13 13 13 15 15 15 13 13 15 12 13 13 14 14 13 11 10 7
13 13 13 14 14 15 16 17 16 16 14 14 12 11 11 11 9 10 11 9 8 6
Wind_Direction
216 225 235 244 251 252 252 256 257 257 253 250 251 250 248 245 240 239 238 238 250 254
193 216 232 241 247 251 253 257 260 264 264 257 250 245 239 234 229 219 215 220 230 247
226 239 248 254 254 254 256 260 264 264 262 255 251 243 227 213 206 207 211 218 243 261
183 200 224 233 240 246 249 249 249 249 230 229 229 218 210 194 198 204 212 215 222 217
146 152 183 218 227 227 225 229 235 227 220 211 212 198 198 197 195 203 195 186 177 180
136 132 131 141 181 184 186 192 194 209 207 205 199 201 196 190 177 172 163 157 158 158
144 151 169 175 185 191 186 186 168 210 179 149 153 158 157 158 156 151 148 146 146 146
152 165 191 182 203 205 199 196 192 184 185 178 178 175 170 165 154 150 137 126 122 120
169 179 187 177 192 183 174 168 164 155 154 145 139 152 157 154 146 140 134 128 125 117
177 176 178 175 173 163 159 151 147 141 139 130 123 132 149 152 145 141 135 133 132 133
184 179 181 173 166 158 151 148 145 137 131 125 115 126 134 138 134 130 127 125 130 130
192 183 179 172 164 161 157 152 146 140 135 132 124 128 131 135 131 127 125 127 130 121
200 191 180 177 169 164 160 151 145 140 143 139 134 136 138 139 137 132 134 136 129 117
197 197 190 180 176 170 164 157 152 147 144 142 143 141 144 145 146 152 148 144 143 141
Height
787 790 792 794 795 798 800 802 803 804 804 806 807 808 810 812 814 816 817 819 821 823
784 787 790 792 793 796 797 799 799 800 800 801 802 804 806 807 809 811 814 815 817 818
785 786 788 790 791 793 794 795 795 796 796 797 798 799 800 802 804 807 809 810 811 814
785 786 788 789 790 790 790 792 793 793 795 795 796 797 797 799 801 803 806 808 808 811
784 785 786 788 788 789 790 790 791 792 793 794 795 796 796 798 799 801 803 805 806 809
784 784 786 787 789 789 789 790 791 792 792 793 793 794 795 797 798 800 802 804 806 809
784 785 786 787 789 789 789 789 789 791 792 792 794 794 794 796 798 800 802 805 806 809
782 785 787 785 788 789 788 788 789 790 791 791 793 794 795 797 798 802 803 804 808 811
783 785 786 785 788 788 788 788 789 789 791 792 794 795 797 798 799 803 804 807 811 814
784 785 786 786 788 788 789 789 791 791 792 795 796 798 799 800 802 804 806 810 812 816
783 785 787 787 787 788 789 790 793 793 794 796 799 800 801 802 804 807 810 811 815 817
782 783 785 786 787 789 791 793 794 795 796 799 801 803 804 805 807 809 812 815 818 817
782 783 784 786 788 790 792 794 795 797 800 802 804 805 807 808 809 811 814 817 817 818
780 783 784 786 788 790 792 794 797 800 802 804 806 807 808 810 811 813 814 815 816 817